Home   Weather   Savannah   Past weeks

Flag for USA Past Weather in Savannah, Georgia, USA — Yesterday and Last 2 Weeks

Now
60 °F

Clear.


Feels Like: 60 °F
Forecast: 64 / 76 °F
Wind: 8 mph from South

Location: Hunter U. S. Army Airfield

Current Time: Jan 21, 2017 at 7:14:28 pm

Latest Report: Jan 21, 2017 at 5:58 pm


Visibility: 10 mi

Pressure: 29.76 "Hg

Humidity: 100%

Dew Point: 60 °F

Location of SavannahLocation

Past Weather in Savannah — Graph

°F

Savannah Temperature Yesterday

Maximum temperature yesterday: 78 °F (at 2:58 pm)
Minimum temperature yesterday: 57 °F (at 1:08 am)
Average temperature yesterday: 66 °F

High & Low Weather Summary for the Past Weeks

 TemperatureHumidityPressure
High78 °F (Jan 19, 1:58 pm)100% (Jan 6, 11:58 pm)30.74 "Hg (Jan 6, 11:58 pm)
Low28 °F (Jan 8, 6:58 am)27% (Jan 8, 2:58 pm)29.70 "Hg (Jan 21, 2:58 pm)
Average56 °F88%30.24 "Hg
* Reported Jan 6 5:58 pm — Jan 21 5:58 pm, Savannah, Weather by CustomWeather, © 2017

Note: Actual official high and low records may vary slightly from our data, if they occured in-between our weather recording intervals... More about our weather records

Advertising

Savannah Weather History for the Previous 24 Hours

Scroll right to see more
 ConditionsComfort  
Time TempWeatherWind HumidityBarometerVisibility
5:58 pm
Sat, Jan 21
60 °FClear.8 mph100%29.76 "Hg10 mi
4:58 pm60 °FScattered clouds.5 mph100%29.77 "Hg10 mi
4:42 pm59 °FScattered clouds.5 mph100%29.76 "Hg10 mi
4:29 pm59 °FFog.3 mph100%29.76 "Hg6 mi
4:16 pm63 °FFog.5 mph100%29.80 "Hg0 mi
3:58 pm69 °FScattered clouds.5 mph98%29.73 "Hg10 mi
2:58 pm71 °FPassing clouds.10 mph94%29.70 "Hg10 mi
1:58 pm71 °FPassing clouds.10 mph96%29.74 "Hg10 mi
12:58 pm74 °FScattered clouds.7 mph93%29.78 "Hg10 mi
12:43 pm73 °FPartly sunny.9 mph94%29.79 "Hg10 mi
12:18 pm72 °FPartly sunny.9 mph100%29.81 "Hg10 mi
11:58 am71 °FMostly cloudy.8 mph100%29.83 "Hg10 mi
11:28 am70 °FLow clouds.5 mph100%29.85 "Hg10 mi
10:58 am69 °FLow clouds.10 mph100%29.87 "Hg10 mi
9:58 am67 °FLow clouds.8 mph100%29.88 "Hg10 mi
8:58 am67 °FLow clouds.8 mph100%29.87 "Hg10 mi
8:33 am66 °FFog.6 mph100%29.86 "Hg6 mi
7:58 am66 °FPartly sunny.5 mph100%29.87 "Hg10 mi
7:28 am66 °FOvercast.5 mph100%29.86 "Hg10 mi
6:58 am67 °FOvercast.5 mph100%29.87 "Hg10 mi
6:03 am66 °FOvercast.3 mph100%29.86 "Hg10 mi
4:58 am67 °FOvercast.8 mph100%29.87 "Hg10 mi
4:28 am66 °FPassing clouds.5 mph100%29.86 "Hg10 mi
3:58 am65 °FClear.5 mph100%29.88 "Hg10 mi
2:58 am65 °FPassing clouds.3 mph100%29.90 "Hg10 mi
1:58 am65 °FPassing clouds.3 mph100%29.89 "Hg10 mi
12:58 am65 °FPassing clouds.6 mph100%29.88 "Hg10 mi
11:58 pm
Fri, Jan 20
65 °FPassing clouds.No wind100%29.91 "Hg10 mi
10:58 pm65 °FClear.No wind100%29.92 "Hg10 mi
9:58 pm66 °FPartly cloudy.3 mph100%29.92 "Hg10 mi
8:58 pm65 °FPassing clouds.5 mph100%29.91 "Hg10 mi
7:58 pm64 °FClear.No wind100%29.90 "Hg10 mi
Weather by CustomWeather, © 2017

See weather overviewHow to use our weather pages